• In Uzbekistan
  • List of Countries
  • For 7 days
  • Water Temperature
  • Satellite Maps
  • Weather Map
  • Weather Widgets
  • user-avatar
    Login

    Hourly Weather Ashtarak

    Today, 25 May, Thursday

    Time Temperature Precipitation Wind Pressure Humidity
    00:00 +10°C° 0 mm 1 mps 656 mmHg 84%
    01:00 +9°C° 0 mm 1 mps 656 mmHg 84%
    02:00 +8°C° 0 mm 1 mps 655 mmHg 84%
    03:00 +7°C° 0 mm 1 mps 655 mmHg 84%
    04:00 +8°C° 0 mm 1 mps 656 mmHg 80%
    05:00 +10°C° 0 mm 1 mps 656 mmHg 76%
    06:00 +11°C° 0 mm 1 mps 657 mmHg 72%
    07:00 +13°C° 0 mm 1 mps 657 mmHg 65%
    08:00 +15°C° 0 mm 1 mps 658 mmHg 57%
    09:00 +17°C° 0 mm 2 mps 658 mmHg 50%
    10:00 +18°C° 0 mm 2 mps 658 mmHg 46%
    11:00 +19°C° 0 mm 2 mps 659 mmHg 42%
    12:00 +20°C° 0 mm 2 mps 659 mmHg 38%
    13:00 +20°C° 0 mm 2 mps 658 mmHg 37%
    14:00 +21°C° 0 mm 2 mps 658 mmHg 36%
    15:00 +21°C° 0 mm 2 mps 658 mmHg 36%
    16:00 +20°C° 0.1 mm 2 mps 658 mmHg 40%
    17:00 +19°C° 0.1 mm 2 mps 658 mmHg 45%
    18:00 +19°C° 0.1 mm 2 mps 658 mmHg 49%
    19:00 +16°C° 0.1 mm 1 mps 658 mmHg 55%
    20:00 +14°C° 0.1 mm 1 mps 657 mmHg 61%
    21:00 +11°C° 0.1 mm 1 mps 657 mmHg 67%
    22:00 +11°C° 0 mm 1 mps 657 mmHg 69%
    23:00 +10°C° 0 mm 1 mps 657 mmHg 71%

    Tomorrow, 26 May, Friday

    Time Temperature Precipitation Wind Pressure Humidity
    00:00 +10°C° 0 mm 1 mps 657 mmHg 73%
    01:00 +10°C° 0 mm 1 mps 657 mmHg 74%
    02:00 +9°C° 0 mm 1 mps 657 mmHg 75%
    03:00 +9°C° 0 mm 1 mps 656 mmHg 75%
    04:00 +10°C° 0 mm 1 mps 657 mmHg 72%
    05:00 +11°C° 0 mm 1 mps 657 mmHg 68%
    06:00 +13°C° 0 mm 1 mps 658 mmHg 64%
    07:00 +15°C° 0 mm 1 mps 658 mmHg 55%
    08:00 +18°C° 0 mm 1 mps 659 mmHg 46%
    09:00 +19°C° 0 mm 2 mps 659 mmHg 36%
    10:00 +20°C° 0 mm 2 mps 659 mmHg 34%
    11:00 +23°C° 0 mm 2 mps 659 mmHg 32%
    12:00 +24°C° 0 mm 3 mps 659 mmHg 29%
    13:00 +24°C° 0.1 mm 3 mps 658 mmHg 31%
    14:00 +24°C° 0.1 mm 3 mps 658 mmHg 32%
    15:00 +24°C° 0.1 mm 3 mps 658 mmHg 33%
    16:00 +23°C° 0.2 mm 2 mps 658 mmHg 38%
    17:00 +21°C° 0.2 mm 2 mps 657 mmHg 43%
    18:00 +21°C° 0.2 mm 1 mps 657 mmHg 48%
    19:00 +19°C° 0.2 mm 1 mps 657 mmHg 54%
    20:00 +16°C° 0.2 mm 1 mps 657 mmHg 60%
    21:00 +13°C° 0.2 mm 1 mps 656 mmHg 65%
    22:00 +12°C° 0.1 mm 1 mps 656 mmHg 68%
    23:00 +12°C° 0.1 mm 1 mps 656 mmHg 71%

    Day after tomorrow, 27 May, Saturday

    Time Temperature Precipitation Wind Pressure Humidity
    00:00 +11°C° 0.1 mm 1 mps 656 mmHg 74%
    01:00 +10°C° 0.1 mm 1 mps 655 mmHg 74%
    02:00 +10°C° 0.1 mm 1 mps 655 mmHg 74%
    03:00 +9°C° 0.1 mm 1 mps 655 mmHg 75%
    04:00 +11°C° 0.1 mm 1 mps 655 mmHg 71%
    05:00 +12°C° 0.1 mm 1 mps 656 mmHg 66%
    06:00 +14°C° 0.1 mm 1 mps 656 mmHg 62%
    07:00 +16°C° 0.2 mm 1 mps 656 mmHg 58%
    08:00 +18°C° 0.2 mm 1 mps 656 mmHg 54%
    09:00 +18°C° 0.2 mm 2 mps 656 mmHg 49%
    10:00 +20°C° 0.2 mm 2 mps 656 mmHg 45%
    11:00 +23°C° 0.2 mm 2 mps 656 mmHg 40%
    12:00 +25°C° 0.2 mm 2 mps 656 mmHg 36%
    13:00 +25°C° 0.6 mm 2 mps 655 mmHg 38%
    14:00 +24°C° 0.6 mm 3 mps 655 mmHg 41%
    15:00 +24°C° 0.6 mm 3 mps 654 mmHg 44%
    16:00 +23°C° 1.1 mm 2 mps 654 mmHg 49%
    17:00 +21°C° 1.1 mm 2 mps 654 mmHg 54%
    18:00 +21°C° 1.1 mm 1 mps 653 mmHg 59%
    19:00 +19°C° 0.5 mm 1 mps 654 mmHg 64%
    20:00 +16°C° 0.5 mm 1 mps 654 mmHg 70%
    21:00 +13°C° 0.5 mm 1 mps 654 mmHg 75%
    22:00 +13°C° 0.3 mm 1 mps 654 mmHg 76%
    23:00 +12°C° 0.3 mm 1 mps 654 mmHg 78%

    28 May, Sunday

    Time Temperature Precipitation Wind Pressure Humidity
    00:00 +11°C° 0.3 mm 1 mps 654 mmHg 79%
    01:00 +11°C° 0.1 mm 1 mps 654 mmHg 79%
    02:00 +10°C° 0.1 mm 1 mps 654 mmHg 80%
    03:00 +10°C° 0.1 mm 1 mps 654 mmHg 80%
    04:00 +11°C° 0.1 mm 1 mps 655 mmHg 77%
    05:00 +12°C° 0.1 mm 1 mps 655 mmHg 75%
    06:00 +14°C° 0.1 mm 1 mps 656 mmHg 73%
    07:00 +16°C° 0 mm 1 mps 657 mmHg 65%
    08:00 +19°C° 0 mm 1 mps 657 mmHg 57%
    09:00 +21°C° 0 mm 1 mps 658 mmHg 49%
    10:00 +21°C° 0 mm 2 mps 658 mmHg 45%
    11:00 +23°C° 0 mm 2 mps 658 mmHg 41%
    12:00 +25°C° 0 mm 2 mps 658 mmHg 37%
    13:00 +25°C° 0.1 mm 2 mps 657 mmHg 37%
    14:00 +25°C° 0.1 mm 2 mps 657 mmHg 37%
    15:00 +25°C° 0.1 mm 2 mps 657 mmHg 36%
    16:00 +24°C° 0.2 mm 2 mps 657 mmHg 40%
    17:00 +23°C° 0.2 mm 2 mps 657 mmHg 44%
    18:00 +23°C° 0.2 mm 1 mps 657 mmHg 47%
    19:00 +20°C° 0.1 mm 1 mps 656 mmHg 53%
    20:00 +16°C° 0.1 mm 1 mps 656 mmHg 60%
    21:00 +13°C° 0.1 mm 1 mps 656 mmHg 66%
    22:00 +13°C° 0 mm 1 mps 656 mmHg 67%
    23:00 +12°C° 0 mm 1 mps 656 mmHg 69%

    29 May, Monday

    Time Temperature Precipitation Wind Pressure Humidity
    00:00 +11°C° 0 mm 1 mps 656 mmHg 71%
    01:00 +11°C° 0 mm 1 mps 656 mmHg 72%
    02:00 +11°C° 0 mm 1 mps 656 mmHg 73%
    03:00 +10°C° 0 mm 1 mps 656 mmHg 75%
    04:00 +12°C° 0 mm 1 mps 656 mmHg 71%
    05:00 +13°C° 0 mm 1 mps 657 mmHg 67%
    06:00 +14°C° 0 mm 1 mps 658 mmHg 64%
    07:00 +18°C° 0 mm 1 mps 658 mmHg 54%
    08:00 +20°C° 0 mm 1 mps 659 mmHg 45%
    09:00 +21°C° 0 mm 2 mps 659 mmHg 36%
    10:00 +23°C° 0 mm 2 mps 659 mmHg 33%
    11:00 +24°C° 0 mm 2 mps 659 mmHg 31%
    12:00 +25°C° 0 mm 3 mps 659 mmHg 29%
    13:00 +25°C° 0.2 mm 3 mps 659 mmHg 31%
    14:00 +25°C° 0.2 mm 2 mps 659 mmHg 33%
    15:00 +25°C° 0.2 mm 2 mps 659 mmHg 34%
    16:00 +24°C° 0.5 mm 2 mps 659 mmHg 41%
    17:00 +23°C° 0.5 mm 2 mps 658 mmHg 48%
    18:00 +22°C° 0.5 mm 1 mps 658 mmHg 55%
    19:00 +20°C° 0.5 mm 1 mps 658 mmHg 61%
    20:00 +17°C° 0.5 mm 2 mps 658 mmHg 68%
    21:00 +15°C° 0.5 mm 2 mps 658 mmHg 74%
    22:00 +14°C° 0.2 mm 2 mps 658 mmHg 76%
    23:00 +14°C° 0.2 mm 2 mps 658 mmHg 78%

    30 May, Tuesday

    Time Temperature Precipitation Wind Pressure Humidity
    00:00 +14°C° 0.2 mm 2 mps 658 mmHg 80%
    01:00 +13°C° 0.1 mm 2 mps 658 mmHg 81%
    02:00 +13°C° 0.1 mm 2 mps 658 mmHg 83%
    03:00 +13°C° 0.1 mm 2 mps 658 mmHg 84%
    04:00 +13°C° 0.1 mm 1 mps 658 mmHg 82%
    05:00 +14°C° 0.1 mm 1 mps 658 mmHg 80%
    06:00 +14°C° 0.1 mm 1 mps 658 mmHg 78%
    07:00 +18°C° 0.1 mm 1 mps 659 mmHg 69%
    08:00 +20°C° 0.1 mm 1 mps 659 mmHg 59%
    09:00 +22°C° 0.1 mm 1 mps 659 mmHg 49%
    10:00 +23°C° 0.2 mm 1 mps 659 mmHg 46%
    11:00 +25°C° 0.2 mm 2 mps 659 mmHg 43%
    12:00 +26°C° 0.2 mm 2 mps 659 mmHg 39%
    13:00 +26°C° 0.3 mm 2 mps 659 mmHg 39%
    14:00 +26°C° 0.3 mm 2 mps 658 mmHg 38%
    15:00 +27°C° 0.3 mm 2 mps 658 mmHg 38%
    16:00 +26°C° 0.3 mm 2 mps 658 mmHg 41%
    17:00 +25°C° 0.3 mm 2 mps 658 mmHg 44%
    18:00 +24°C° 0.3 mm 2 mps 658 mmHg 47%
    19:00 +20°C° 0.1 mm 2 mps 657 mmHg 54%
    20:00 +17°C° 0.1 mm 2 mps 657 mmHg 60%
    21:00 +14°C° 0.1 mm 1 mps 656 mmHg 66%
    22:00 +13°C° 0 mm 1 mps 656 mmHg 67%
    23:00 +12°C° 0 mm 1 mps 656 mmHg 68%
    Show more